Terminal Aerodrome Forecast
Issued by NWS Dodge City, KS

Home | Current Version | Previous Version | Graphics & Text | Print | Product List | Glossary Off
Versions: 1 2 3 4 5 6 7 8 9 10 11 12 13 14 15 16 17 18 19 20 21 22 23 24 25 26

330
FTUS43 KDDC 221120
TAFDDC
TAF
KDDC 221120Z 2212/2312 20007KT P6SM SCT120
     FM221800 19013G22KT P6SM FEW110
     FM230300 17009KT P6SM FEW100=

USA.gov is the U.S. government's official web portal to all federal, state and local government web resources and services.